Tracking 31027 objects as of 19-Jul-2025
HD Live streaming from Space Station
objects crossing your sky now

COSMOS 2499 DEB

Track COSMOS 2499 DEB now!
10-day predictions


NORAD ID: 49938
Int'l Code: 2014-028V
Perigee: 1,029.7 km
Apogee: 1,483.5 km
Inclination: 82.6 °
Period: 110.5 minutes
Semi major axis: 7627 km
RCS: Unknown
Launch date: May 23, 2014
Source: Commonwealth of Independent States (former USSR) (CIS)
Launch site: PLESETSK MISSILE AND SPACE COMPLEX (PKMTR)

Note: This is SATELLITE DEBRIS
Your satellite tracking list
STARLINK-5403
Track 1 satellite(s)




NASA's NSSDC Master Catalog

Two Line Element Set (TLE):
1 49938U 14028V   25199.05249884  .00001343  00000-0  34321-2 0  9990
2 49938  82.5573 106.6400 0297465 318.9864  38.9215 13.03222144175658
Source of the keplerian elements: AFSPC